View from above orbital plane
|
View from above satellite
|
Ground track
|
The orbit data is extracted from the following two-line orbital elements,
1 39445U 13066AF 21023.50030988 .00000297 00000-0 42822-4 0 9992
2 39445 97.5734 17.6438 0056323 269.2289 90.2471 14.82133615385911
Epoch (UTC): | 23 January 2021 12:00:26 |
Eccentricity: | 0.0056323 |
inclination: | 97.5734° |
perigee height: | 583 km |
apogee height: | 662 km |
right ascension of ascending node: | 17.6438° |
argument of perigee: | 269.2289° |
revolutions per day: | 14.82133615 |
mean anomaly at epoch: | 90.2471° |
orbit number at epoch: | 38591 |
The dashed part of the orbit path shows where the satellite is in the earth's shadow,
|
|